Tracking 28794 objects as of 19-Apr-2024
HD Live streaming from Space Station
objects crossing your sky now

COSMOS 2251 DEB

Track COSMOS 2251 DEB now!
10-day predictions


NORAD ID: 33822
Int'l Code: 1993-036BP
Perigee: 754.3 km
Apogee: 1,002.2 km
Inclination: 74.1 °
Period: 102.4 minutes
Semi major axis: 7249 km
RCS: 0.037 m2 (small)
Launch date: June 16, 1993
Source: Commonwealth of Independent States (former USSR) (CIS)
Launch site: PLESETSK MISSILE AND SPACE COMPLEX (PKMTR)

Note: This is SATELLITE DEBRIS
Your satellite tracking list
Your tracking list is empty




NASA's NSSDC Master Catalog

Two Line Element Set (TLE):
1 33822U 93036BP  24110.58318113  .00005608  00000-0  29759-2 0  9990
2 33822  74.0773 171.6487 0170995   5.7521 117.2978 14.06577073775658
Source of the keplerian elements: AFSPC